| time (UTC) | temp C | wind direction | speed KPH | gust KPH | rain 1hr cm | rain 24hr cm | rain mn cm | humidity % | barometer mb |
| 20260507070044 | 11 | 98 | 0.0 | 0.0 | 0.00 | 0.00 | 0.00 | 90 | 1025.7 |
| 20260507064542 | 11 | 98 | 0.0 | 0.0 | 0.00 | 0.00 | 0.00 | 89 | 1025.7 |
| 20260507063046 | 11 | 98 | 0.0 | 0.0 | 0.00 | 0.00 | 0.00 | 88 | 1025.7 |
| 20260507061538 | 11 | 98 | 0.0 | 0.0 | 0.00 | 0.00 | 0.00 | 90 | 1025.7 |
| 20260507060048 | 11 | 98 | 0.0 | 0.0 | 0.00 | 0.00 | 0.00 | 90 | 1025.7 |
| 20260507054544 | 12 | 98 | 0.0 | 6.4 | 0.00 | 0.00 | 0.00 | 90 | 1025.7 |
| 20260507053031 | 12 | 3 | 0.0 | 0.0 | 0.00 | 0.00 | 0.00 | 91 | 1025.7 |
| 20260507051529 | 13 | 3 | 0.0 | 0.0 | 0.00 | 0.00 | 0.00 | 92 | 1025.7 |
| 20260507050026 | 13 | 3 | 0.0 | 3.2 | 0.00 | 0.00 | 0.00 | 92 | 1025.7 |
| 20260507044544 | 13 | 273 | 0.0 | 0.0 | 0.00 | 0.00 | 0.00 | 92 | 1025.7 |
| 20260507043022 | 14 | 273 | 0.0 | 0.0 | 0.00 | 0.00 | 0.00 | 92 | 1025.7 |
| 20260507041519 | 15 | 273 | 0.0 | 0.0 | 0.00 | 0.00 | 0.00 | 93 | 1025.7 |
| 20260507040017 | 15 | 273 | 0.0 | 0.0 | 0.00 | 0.00 | 0.00 | 93 | 1025.7 |
| 20260507034516 | 15 | 273 | 0.0 | 0.0 | 0.00 | 0.00 | 0.00 | 93 | 1025.7 |
| 20260507033016 | 15 | 273 | 0.0 | 3.2 | 0.00 | 0.00 | 0.00 | 93 | 1025.7 |
| 20260507031516 | 15 | 271 | 0.0 | 0.0 | 0.00 | 0.00 | 0.00 | 93 | 1025.7 |
| 20260507030016 | 15 | 270 | 0.0 | 0.0 | 0.00 | 0.00 | 0.00 | 93 | 1025.7 |
| 20260507024515 | 15 | 246 | 0.0 | 0.0 | 0.00 | 0.00 | 0.00 | 93 | 1025.7 |
| 20260507023014 | 15 | 244 | 0.0 | 0.0 | 0.00 | 0.00 | 0.00 | 93 | 1025.7 |
| 20260507021519 | 15 | 244 | 0.0 | 0.0 | 0.00 | 0.00 | 0.00 | 93 | 1025.7 |
| 20260507020013 | 15 | 244 | 0.0 | 0.0 | 0.00 | 0.00 | 0.00 | 93 | 1025.7 |
| 20260507014513 | 15 | 243 | 0.0 | 0.0 | 0.00 | 0.00 | 0.00 | 93 | 1025.7 |
| 20260507013011 | 15 | 243 | 0.0 | 0.0 | 0.00 | 0.00 | 0.00 | 93 | 1025.7 |
| 20260507011511 | 15 | 243 | 0.0 | 0.0 | 0.00 | 0.00 | 0.00 | 93 | 1025.7 |
| 20260507010011 | 15 | 244 | 0.0 | 6.4 | 0.00 | 0.00 | 0.00 | 93 | 1025.7 |
| 20260507004510 | 15 | 259 | 0.0 | 8.0 | 0.00 | 0.00 | 0.00 | 93 | 1025.7 |
| 20260507003015 | 15 | 254 | 0.0 | 0.0 | 0.00 | 0.00 | 0.00 | 93 | 1025.7 |
| 20260507001516 | 15 | 254 | 0.0 | 0.0 | 0.00 | 0.00 | 0.00 | 93 | 1025.7 |
| 20260507000012 | 15 | 252 | 0.0 | 0.0 | 0.00 | 0.00 | 0.00 | 92 | 1025.7 |
| 20260506234507 | 15 | 252 | 0.0 | 1.6 | 0.00 | 0.00 | 0.00 | 92 | 1025.7 |
| 20260506233003 | 15 | 308 | 0.0 | 0.0 | 0.00 | 0.00 | 0.00 | 92 | 1025.7 |
| 20260506231506 | 15 | 308 | 0.0 | 0.0 | 0.00 | 0.00 | 0.00 | 92 | 1025.7 |
| 20260506230002 | 15 | 215 | 0.0 | 8.0 | 0.00 | 0.00 | 0.00 | 92 | 1025.7 |
| 20260506224502 | 15 | 254 | 0.0 | 6.4 | 0.00 | 0.00 | 0.00 | 92 | 1025.7 |
| 20260506223001 | 15 | 270 | 0.0 | 0.0 | 0.00 | 0.00 | 0.00 | 92 | 1025.7 |
| 20260506221501 | 15 | 281 | 0.0 | 6.4 | 0.00 | 0.00 | 0.00 | 92 | 1025.7 |
| 20260506220105 | 16 | 306 | 0.0 | 0.0 | 0.00 | 0.00 | 0.00 | 91 | 1025.7 |
| 20260506214610 | 16 | 259 | 0.0 | 0.0 | 0.00 | 0.00 | 0.00 | 91 | 1025.7 |
| 20260506213059 | 16 | 245 | 0.0 | 9.7 | 0.00 | 0.00 | 0.00 | 91 | 1025.7 |
| 20260506211559 | 16 | 279 | 0.0 | 3.2 | 0.00 | 0.00 | 0.00 | 91 | 1025.7 |
| 20260506210100 | 16 | 283 | 0.0 | 9.7 | 0.00 | 0.00 | 0.00 | 90 | 1025.7 |
| 20260506204617 | 16 | 163 | 0.0 | 0.0 | 0.00 | 0.00 | 0.00 | 90 | 1025.7 |
| 20260506203056 | 17 | 162 | 0.0 | 9.7 | 0.00 | 0.00 | 0.00 | 88 | 1025.7 |
| 20260506201554 | 17 | 243 | 0.0 | 0.0 | 0.00 | 0.00 | 0.00 | 87 | 1025.7 |
| 20260506200053 | 17 | 30 | 0.0 | 6.4 | 0.00 | 0.00 | 0.00 | 85 | 1025.7 |
| 20260506194603 | 18 | 153 | 0.0 | 1.6 | 0.00 | 0.00 | 0.00 | 84 | 1025.7 |
| 20260506193057 | 18 | 256 | 0.0 | 0.0 | 0.00 | 0.00 | 0.00 | 83 | 1025.7 |
| 20260506191552 | 18 | 256 | 0.0 | 0.0 | 0.00 | 0.00 | 0.00 | 82 | 1025.7 |
| 20260506190050 | 19 | 261 | 0.0 | 8.0 | 0.00 | 0.00 | 0.00 | 79 | 1025.7 |
| 20260506184550 | 21 | 6 | 0.0 | 6.4 | 0.00 | 0.00 | 0.00 | 72 | 1025.7 |
| 20260506183054 | 21 | 214 | 1.6 | 11.3 | 0.00 | 0.00 | 0.00 | 67 | 1025.7 |
| 20260506181549 | 21 | 282 | 0.0 | 12.9 | 0.00 | 0.00 | 0.00 | 66 | 1025.7 |
| 20260506180051 | 22 | 263 | 0.0 | 8.0 | 0.00 | 0.00 | 0.00 | 65 | 1025.7 |
| 20260506174549 | 22 | 281 | 0.0 | 8.0 | 0.00 | 0.00 | 0.00 | 63 | 1025.7 |
| 20260506173049 | 23 | 64 | 0.0 | 12.9 | 0.00 | 0.00 | 0.00 | 62 | 1025.7 |
| 20260506171554 | 22 | 301 | 1.6 | 8.0 | 0.00 | 0.00 | 0.00 | 64 | 1025.7 |
| 20260506170047 | 22 | 144 | 0.0 | 8.0 | 0.00 | 0.00 | 0.00 | 65 | 1025.7 |
| 20260506164544 | 22 | 304 | 0.0 | 6.4 | 0.00 | 0.00 | 0.00 | 65 | 1025.7 |
| 20260506163045 | 22 | 263 | 0.0 | 8.0 | 0.00 | 0.00 | 0.00 | 64 | 1025.7 |
| 20260506161543 | 22 | 268 | 1.6 | 11.3 | 0.00 | 0.00 | 0.00 | 64 | 1025.7 |
| 20260506160043 | 22 | 267 | 0.0 | 12.9 | 0.00 | 0.00 | 0.00 | 65 | 1025.7 |
| 20260506154552 | 22 | 229 | 0.0 | 9.7 | 0.00 | 0.00 | 0.00 | 65 | 1025.7 |
| 20260506153042 | 22 | 309 | 1.6 | 14.5 | 0.00 | 0.00 | 0.00 | 64 | 1025.7 |
| 20260506151538 | 22 | 271 | 0.0 | 8.0 | 0.00 | 0.00 | 0.00 | 65 | 1025.7 |
| 20260506150036 | 22 | 233 | 0.0 | 19.3 | 0.00 | 0.00 | 0.00 | 68 | 1025.7 |
| 20260506144537 | 21 | 319 | 0.0 | 11.3 | 0.00 | 0.00 | 0.00 | 67 | 1025.7 |
| 20260506143033 | 21 | 121 | 0.0 | 9.7 | 0.00 | 0.00 | 0.00 | 69 | 1025.7 |
| 20260506141529 | 21 | 337 | 0.0 | 9.7 | 0.00 | 0.00 | 0.00 | 71 | 1025.7 |
| 20260506140029 | 20 | 266 | 1.6 | 14.5 | 0.00 | 0.00 | 0.00 | 74 | 1025.7 |
| 20260506134523 | 20 | 204 | 0.0 | 6.4 | 0.00 | 0.00 | 0.00 | 75 | 1025.7 |
| 20260506133040 | 19 | 266 | 1.6 | 12.9 | 0.00 | 0.00 | 0.00 | 74 | 1025.7 |
| 20260506131528 | 18 | 338 | 0.0 | 8.0 | 0.00 | 0.00 | 0.00 | 76 | 1025.7 |
| 20260506130020 | 18 | 238 | 1.6 | 14.5 | 0.00 | 0.00 | 0.00 | 76 | 1025.7 |
| 20260506124516 | 18 | 14 | 0.0 | 12.9 | 0.00 | 0.00 | 0.00 | 79 | 1025.7 |
| 20260506123014 | 17 | 255 | 0.0 | 8.0 | 0.00 | 0.00 | 0.00 | 79 | 1025.7 |
| 20260506121513 | 17 | 281 | 1.6 | 9.7 | 0.00 | 0.00 | 0.00 | 80 | 1025.7 |
| 20260506120018 | 17 | 329 | 0.0 | 8.0 | 0.00 | 0.00 | 0.00 | 80 | 1025.7 |
| 20260506114511 | 17 | 154 | 0.0 | 6.4 | 0.00 | 0.00 | 0.00 | 81 | 1025.7 |
| 20260506113011 | 17 | 169 | 0.0 | 3.2 | 0.00 | 0.00 | 0.00 | 81 | 1025.7 |
| 20260506111508 | 16 | 262 | 1.6 | 9.7 | 0.00 | 0.00 | 0.00 | 83 | 1025.7 |
| 20260506110006 | 16 | 261 | 0.0 | 0.0 | 0.00 | 0.00 | 0.00 | 84 | 1025.7 |
| 20260506104506 | 16 | 282 | 0.0 | 11.3 | 0.00 | 0.00 | 0.00 | 84 | 1025.7 |
| 20260506103002 | 16 | 304 | 0.0 | 3.2 | 0.00 | 0.00 | 0.00 | 83 | 1025.7 |
| 20260506101501 | 16 | 210 | 0.0 | 0.0 | 0.00 | 0.00 | 0.00 | 84 | 1025.7 |
| 20260506094559 | 15 | 279 | 0.0 | 0.0 | 0.00 | 0.00 | 0.00 | 83 | 1025.7 |
| 20260506093056 | 15 | 279 | 0.0 | 3.2 | 0.00 | 0.00 | 0.00 | 83 | 1025.7 |
| 20260506091600 | 16 | 287 | 0.0 | 0.0 | 0.00 | 0.00 | 0.00 | 82 | 1025.7 |
| 20260506090053 | 16 | 239 | 0.0 | 0.0 | 0.00 | 0.00 | 0.00 | 81 | 1025.7 |
| 20260506084554 | 16 | 267 | 0.0 | 6.4 | 0.00 | 0.00 | 0.00 | 81 | 1025.7 |
| 20260506083052 | 16 | 316 | 0.0 | 3.2 | 0.00 | 0.00 | 0.00 | 80 | 1025.7 |
| 20260506081552 | 16 | 336 | 0.0 | 6.4 | 0.00 | 0.00 | 0.00 | 79 | 1025.7 |
| 20260506073047 | 16 | 249 | 0.0 | 0.0 | 0.00 | 0.00 | 0.00 | 78 | 1025.7 |
| 20260506071545 | 16 | 246 | 0.0 | 8.0 | 0.00 | 0.00 | 0.00 | 77 | 1025.7 |